Location: N�rnberg
(49.4471°N, 11.0632°E)
Time: 21:34:57
(UTC+02:00)

VELOX 1 - Pass Details

Date: 24 April 2026
Orbit: 569 x 580 km, 98.3° (Epoch: 13 May)

Event Time Altitude Azimuth Distance (km) Brightness Sun altitude
Rises 23:30:23 0° 29° (NNE) 2,784 ? -23.4°
Reaches altitude 10° 23:33:15 10° 51° (NE) 1,881 ? -23.6°
Enters shadow 23:34:12 13° 64° (ENE) 1,670 ? -23.7°
